Weather History for KDEQ - September, 2014

Change the Weather History Date:

Saturday, September 13, 2014

  Actual Average Record
Temperature  
Mean Temperature 64 °F 75 °F  
Max Temperature 69 °F 88 °F 103 °F (2011)
Min Temperature 58 °F 62 °F 43 °F (1960)
Degree Days  
Heating Degree Days 1 0  
Month to date heating degree days 1 0  
Since 1 July heating degree days 1 0  
Cooling Degree Days 0 10  
Month to date cooling degree days 174 159  
Year to date cooling degree days 1504 1751  
Growing Degree Days 14 (Base 50)    
Moisture  
Dew Point 57 °F    
Average Humidity 81    
Maximum Humidity 93    
Minimum Humidity 68    
Precipitation  
Precipitation T in 0.13 in 2.29 in (1998)
Month to date precipitation 6.96 1.58  
Year to date precipitation 33.31 33.17  
Snow  
Snow 0.00 in - - ()
Month to date snowfall 0.0  
Since 1 July snowfall 0.0  
Since 1 September snowfall 0.0  
Snow Depth 0.00 in    
Sea Level Pressure  
Sea Level Pressure 30.22 in    
Wind  
Wind Speed 6 mph (NE)    
Max Wind Speed 12 mph    
Max Gust Speed 15 mph    
Visibility 10 miles    
Events Rain    
T = Trace of Precipitation, MM = Missing Value Source: NWS Daily Summary

Daily Weather History Graph

Daily Weather History Graph

Search for Another Location

Airport or City:

Trip Planner

Search our weather history database for the weather conditions in past years. The results will help you decide how hot, cold, wet, or windy it might be!

Date:

Astronomy

Sep. 13, 2014 Rise Set
Actual Time 6:59 AM CDT 7:26 PM CDT
Civil Twilight 6:34 AM CDT 7:52 PM CDT
Nautical Twilight 6:04 AM CDT 8:21 PM CDT
Astronomical Twilight 5:34 AM CDT 8:51 PM CDT
Moon 10:47 PM CDT (9/13) 11:53 AM CDT (9/13)
Length of Visible Light 13h 17m
Length of Day
12h 27m
Waning Gibbous, 74% of the Moon is Illuminated
Sep 13
Waning Gibbous
Sep 15
Last Quarter
Sep 24
New
Oct 1
First Quarter
Oct 8
Full

Hourly Weather History & Observations

Time (CDT) Temp. Dew Point Humidity Pressure Visibility Wind Dir Wind Speed Gust Speed Precip Events Conditions
12:38 AM 64.0 °F 61.0 °F 90% 30.19 in 10.0 mi NNE 4.6 mph - N/A   Overcast
12:53 AM 64.0 °F 60.1 °F 87% 30.18 in 10.0 mi NE 6.9 mph - N/A   Overcast
1:06 AM 63.0 °F 60.1 °F 90% 30.19 in 10.0 mi NE 9.2 mph - N/A   Overcast
1:39 AM 63.0 °F 60.1 °F 90% 30.20 in 5.0 mi NE 5.8 mph - 0.00 in Rain Light Rain
1:53 AM 62.1 °F 60.1 °F 93% 30.19 in 3.0 mi NE 4.6 mph - 0.00 in Rain Light Rain
2:35 AM 62.1 °F 60.1 °F 93% 30.19 in 7.0 mi NE 6.9 mph - 0.00 in Rain Light Rain
2:53 AM 62.1 °F 59.0 °F 90% 30.19 in 10.0 mi NNE 5.8 mph - 0.00 in   Overcast
3:30 AM 62.1 °F 59.0 °F 90% 30.19 in 10.0 mi North 4.6 mph - N/A   Overcast
3:53 AM 61.0 °F 57.9 °F 90% 30.19 in 10.0 mi NNE 6.9 mph - N/A   Overcast
4:05 AM 61.0 °F 57.9 °F 90% 30.20 in 10.0 mi NNE 6.9 mph - N/A   Overcast
4:12 AM 61.0 °F 57.9 °F 90% 30.20 in 10.0 mi NNE 5.8 mph - N/A   Overcast
4:38 AM 61.0 °F 57.0 °F 87% 30.20 in 10.0 mi NNE 8.1 mph - N/A   Overcast
4:53 AM 60.1 °F 57.0 °F 90% 30.19 in 10.0 mi NNE 9.2 mph - N/A   Overcast
5:53 AM 59.0 °F 55.9 °F 90% 30.20 in 10.0 mi NE 8.1 mph - N/A   Overcast
6:53 AM 59.0 °F 55.9 °F 90% 30.22 in 10.0 mi NE 6.9 mph - N/A   Overcast
7:10 AM 59.0 °F 55.9 °F 90% 30.23 in 10.0 mi NE 8.1 mph - N/A   Overcast
8:45 AM 59.0 °F 55.0 °F 87% 30.25 in 10.0 mi East 5.8 mph - N/A   Overcast
8:53 AM 59.0 °F 55.0 °F 87% 30.24 in 10.0 mi Variable 6.9 mph - N/A   Overcast
9:50 AM 60.8 °F 55.4 °F 82% 30.27 in 10.0 mi East 6.9 mph - N/A   Overcast
9:53 AM 61.0 °F 55.0 °F 81% 30.26 in 10.0 mi East 5.8 mph - N/A   Overcast
10:49 AM 62.6 °F 53.6 °F 72% 30.28 in 10.0 mi NE 9.2 mph - N/A   Overcast
10:53 AM 62.1 °F 54.0 °F 75% 30.27 in 10.0 mi ENE 6.9 mph - N/A   Overcast
11:01 AM 62.1 °F 54.0 °F 75% 30.28 in 10.0 mi ENE 6.9 mph - N/A   Overcast
11:11 AM 63.0 °F 54.0 °F 72% 30.28 in 10.0 mi NE 9.2 mph - N/A   Overcast
11:22 AM 63.0 °F 53.1 °F 70% 30.28 in 10.0 mi ENE 9.2 mph - N/A   Overcast
11:32 AM 64.0 °F 54.0 °F 70% 30.28 in 10.0 mi ENE 10.4 mph - N/A   Overcast
11:53 AM 64.9 °F 55.0 °F 70% 30.27 in 10.0 mi NE 5.8 mph - N/A   Overcast
12:34 PM 64.9 °F 55.0 °F 70% 30.27 in 10.0 mi Variable 5.8 mph - N/A   Overcast
12:53 PM 66.0 °F 55.0 °F 68% 30.26 in 10.0 mi NE 9.2 mph - N/A   Overcast
1:53 PM 66.0 °F 55.0 °F 68% 30.25 in 10.0 mi NE 8.1 mph - N/A   Overcast
2:53 PM 66.9 °F 55.9 °F 68% 30.22 in 10.0 mi East 8.1 mph - N/A   Overcast
3:53 PM 68.0 °F 57.0 °F 68% 30.21 in 10.0 mi East 5.8 mph - N/A   Overcast
4:53 PM 68.0 °F 57.0 °F 68% 30.19 in 10.0 mi ENE 3.5 mph - N/A   Overcast
5:53 PM 66.9 °F 57.9 °F 73% 30.19 in 10.0 mi Calm Calm - N/A   Mostly Cloudy
6:53 PM 66.0 °F 57.9 °F 75% 30.19 in 10.0 mi East 4.6 mph - N/A   Overcast
7:53 PM 64.0 °F 59.0 °F 84% 30.19 in 10.0 mi East 3.5 mph - N/A   Overcast
8:53 PM 63.0 °F 57.9 °F 84% 30.20 in 10.0 mi East 5.8 mph - N/A   Overcast
9:53 PM 62.1 °F 57.0 °F 84% 30.22 in 10.0 mi ENE 5.8 mph - N/A   Overcast
10:53 PM 61.0 °F 57.0 °F 87% 30.23 in 10.0 mi East 5.8 mph - N/A   Overcast
11:53 PM 61.0 °F 55.9 °F 83% 30.23 in 10.0 mi ENE 5.8 mph - N/A   Overcast